[[{"header":{"parameterUnit":"m.s-1","parameterCategory":1,"la1":30.2991,"la2":30.254,"lo1":-89.0895,"lo2":-89.0444,"dy":0.0017,"dx":0.0017,"nx":28,"ny":28,"refTime":"2024-05-25T21:00:00:Z","depth":0,"parameterNumber":2,"parameterNumberName":"U-component_of_WINDS"},"data":[0,0,0,0,0,0,0,0,0,0,0,0,0,0,0,0,0,0,0,0,0,0,0,0,0,0,0,0,0,0,0,0,0,0,0,0,0,0,0,0,0,0,0,0,0,0,0,0,0,0,0,0,0,0,0,0,0,0,2.7298,2.7298,0,2.7354,2.7355,2.7355,2.7323,2.7322,2.732,2.7319,2.7373,2.7376,2.7379,0,0,0,0,0,0,0,0,0,0,0,0,0,2.7158,2.716,2.7298,2.7298,2.7299,2.7354,2.7355,2.7355,2.7323,2.7322,2.732,2.7318,2.7372,2.7375,2.7379,0,0,0,0,0,0,0,0,0,0,0,0,0,2.7216,2.7161,2.7297,2.729,2.729,2.7354,2.7355,2.7356,2.7324,2.7322,2.7319,2.7317,2.7371,2.7375,2.7379,2.7453,0,0,2.7393,2.7394,0,0,0,0,0,0,0,0,2.7213,2.7222,2.729,2.729,2.729,2.7329,2.7325,2.7388,2.7324,2.7311,2.7319,2.7316,2.736,2.7365,2.7381,2.7456,2.7458,2.7393,2.7396,2.7398,2.7399,0,0,0,0,0,0,0,2.7209,2.7219,2.732,2.7291,2.7291,2.7282,2.7288,2.7337,2.7348,2.7312,2.731,2.7317,2.736,2.7377,2.7382,2.7459,2.7393,2.7397,2.7399,2.7401,2.7593,2.7595,0,0,0,0,0,0,2.7206,2.7216,2.7318,2.7321,2.7245,2.7286,2.7293,2.7319,2.7347,2.7349,2.7319,2.7315,2.737,2.7377,2.7384,2.7469,2.7397,2.7402,2.7404,2.7591,2.7594,2.7596,0,0,0,0,0,0,2.7203,2.7216,2.7316,2.7268,2.728,2.7291,2.7321,2.7321,2.7338,2.7353,2.7354,2.7335,2.7369,2.7377,2.7435,2.747,2.7404,2.7407,2.7588,2.7592,2.7595,2.7642,0,0,0,0,0,0,2.7199,2.7215,2.7244,2.7269,2.7283,2.7368,2.7323,2.7324,2.7346,2.7342,2.7368,2.7369,2.7368,2.7429,2.744,2.7475,2.7411,2.7585,2.7589,2.7594,2.7638,2.7647,2.7655,0,0,0,0,0,2.7195,2.7255,2.7246,2.7258,2.732,2.737,2.7378,2.7376,2.7349,2.7378,2.7386,2.7369,2.7466,2.7435,2.7447,2.7484,2.7582,2.7588,2.7593,2.7634,2.7645,2.7655,0,0,0,0,0,0,2.7233,2.7258,2.7248,2.7319,2.7343,2.7365,2.7401,2.7389,2.7419,2.7414,2.7409,2.7415,2.7474,2.7486,2.7452,2.7555,2.7519,2.7528,2.7546,2.7557,2.7566,2.7561,2.7414,0,0,0,0,0,2.7251,2.7291,2.731,2.737,2.7383,2.739,2.7412,2.7408,2.7432,2.7441,2.7454,2.7477,2.7512,2.7536,2.7569,2.764,2.7643,2.7671,2.768,2.7687,2.7693,2.7728,2.774,2.7615,2.7615,2.7615,0,0,2.7286,2.7304,2.733,2.7379,2.7397,2.7436,2.7399,2.7443,2.7472,2.7448,2.7503,2.7513,2.7538,2.7602,2.7631,2.7613,2.7729,2.7694,2.77,2.7702,2.7735,2.7747,2.7757,2.7619,2.7618,2.7617,0,0,2.7369,2.7389,2.744,2.7459,2.7486,2.749,2.7503,2.7527,2.7532,2.7588,2.757,2.7603,2.7665,2.7683,2.77,2.7788,2.7772,2.78,2.7845,2.7879,2.7889,2.7898,2.7926,2.7937,2.7806,2.7807,2.7807,0,2.7409,2.747,2.7468,2.7513,2.7533,2.7514,2.7564,2.7582,2.7619,2.7633,2.7613,2.7688,2.7704,2.777,2.7792,2.7807,2.7819,2.7796,2.7888,2.7897,2.7905,2.7932,2.7943,2.7809,2.7809,2.7809,2.7809,0,2.7515,2.7558,2.7595,2.7632,2.7657,2.7704,2.7707,2.7733,2.7726,2.7732,2.7787,2.7805,2.7841,2.7856,2.7851,2.7921,2.7909,2.7889,2.7852,2.792,2.7945,2.7956,2.7814,2.7813,2.7812,2.7811,0,0,2.7625,2.7659,2.7672,2.7687,2.7716,2.7748,2.7793,2.7829,2.7849,2.7875,2.7911,2.7963,2.7944,2.7963,2.7959,2.799,2.8055,2.7966,2.7966,2.7979,2.813,2.8143,2.8156,2.8045,2.8047,2.8049,2.8127,0,2.7708,2.7789,2.7788,2.7862,2.7899,2.788,2.792,2.794,2.7947,2.7978,2.7984,2.802,2.7994,2.8004,2.8034,2.8041,2.8085,2.8036,2.8076,2.8078,2.8068,2.8169,2.8184,2.8257,2.8137,2.8139,2.814,0,2.7817,2.7846,2.7924,2.7944,2.796,2.7996,2.8026,2.8057,2.8079,2.8081,2.8102,2.8093,2.8137,2.8101,2.8159,2.8126,2.8142,2.8148,2.8151,2.8153,2.8111,2.8171,2.828,2.829,2.8157,2.8155,2.8154,0,2.7885,2.7944,2.7997,2.8011,2.8038,2.8063,2.8074,2.8095,2.8115,2.8142,2.8154,2.8186,2.8203,2.8226,2.8225,2.8199,2.8283,2.8247,2.8284,2.8284,2.8301,2.8299,2.8412,2.8316,2.8316,2.8316,2.8315,0,2.7977,2.8024,2.8028,2.8061,2.8112,2.811,2.8161,2.817,2.8188,2.822,2.8207,2.8237,2.8234,2.8265,2.8264,2.8311,2.8319,2.832,2.8319,2.832,2.832,2.8329,2.8323,2.8318,2.8318,2.8317,2.8317,0,2.8061,2.8066,2.8122,2.8143,2.8149,2.8186,2.8202,2.8232,2.8237,2.8278,2.8287,2.8294,2.8329,2.833,2.8371,2.837,2.8426,2.8421,2.8419,2.8417,2.8452,2.8448,2.8572,2.8587,2.8484,2.8485,2.8486,0,2.8118,2.8154,2.8178,2.8199,2.8213,2.8247,2.8268,2.8266,2.8288,2.8315,2.8341,2.8374,2.8401,2.8456,2.8464,2.8494,2.8487,2.8529,2.8491,2.849,2.8484,2.8481,2.8483,2.8535,2.8536,2.8537,2.8538,0,2.8218,2.8218,2.8249,2.828,2.8305,2.833,2.8353,2.837,2.8371,2.8396,2.8431,2.8452,2.8492,2.8525,2.8553,2.8564,2.855,2.855,2.856,2.856,2.8556,2.8556,2.8436,2.8547,2.8546,2.8545,2.8545,2.8544,2.8288,2.8318,2.8339,2.8373,2.839,2.8411,2.844,2.8448,2.8478,2.8511,2.8508,2.8546,2.8565,2.8603,2.8615,2.8644,2.863,2.8644,2.8647,2.865,2.8653,2.8554,2.865,2.865,2.8649,2.8649,2.8649,0,2.8385,2.8397,2.8429,2.8461,2.8487,2.8474,2.8497,2.852,2.8554,2.8574,2.86,2.8639,2.867,2.868,2.871,2.8731,2.8725,2.8738,2.8735,2.8737,2.8666,2.8653,2.8742,2.8742,2.8742,2.8742,2.8742,2.8742,2.8438,2.8487,2.849,2.8546,2.8558,2.8596,2.861,2.8629,2.8644,2.8689,2.8715,2.8722,2.8736,2.8767,2.8794,2.8796,2.8806,2.8821,2.882,2.8752,2.8743,2.8734,2.8722,2.8824,2.8824,2.8889,2.889,2.889]},{"header":{"parameterUnit":"m.s-1","parameterCategory":1,"la1":30.2991,"la2":30.254,"lo1":-89.0895,"lo2":-89.0444,"dy":0.0017,"dx":0.0017,"nx":28,"ny":28,"refTime":"2024-05-25T21:00:00:Z","depth":0,"parameterNumber":3,"parameterNumberName":"V-component_of_WINDS"},"data":[0,0,0,0,0,0,0,0,0,0,0,0,0,0,0,0,0,0,0,0,0,0,0,0,0,0,0,0,0,0,0,0,0,0,0,0,0,0,0,0,0,0,0,0,0,0,0,0,0,0,0,0,0,0,0,0,0,0,4.3283,4.3284,0,4.3397,4.3398,4.34,4.3384,4.3382,4.338,4.3378,4.3489,4.3494,4.3498,0,0,0,0,0,0,0,0,0,0,0,0,0,4.3044,4.3048,4.3283,4.3284,4.3286,4.3397,4.3399,4.34,4.3384,4.3382,4.3379,4.3377,4.3488,4.3493,4.3499,0,0,0,0,0,0,0,0,0,0,0,0,0,4.3152,4.305,4.3282,4.3291,4.3293,4.3397,4.3399,4.34,4.3384,4.3382,4.3379,4.3376,4.3486,4.3493,4.35,4.36,0,0,4.3521,4.3524,0,0,0,0,0,0,0,0,4.3146,4.3161,4.3288,4.3291,4.3293,4.3373,4.3355,4.3467,4.3385,4.335,4.3378,4.3375,4.3453,4.3462,4.349,4.3605,4.361,4.3522,4.3526,4.3529,4.3531,0,0,0,0,0,0,0,4.3138,4.3155,4.3328,4.329,4.3293,4.3287,4.3299,4.3376,4.3415,4.3352,4.3352,4.3366,4.3453,4.3483,4.3492,4.3612,4.3522,4.3528,4.3532,4.3535,4.3814,4.3817,0,0,0,0,0,0,4.3129,4.3149,4.3324,4.3331,4.3211,4.3294,4.3307,4.335,4.3415,4.3422,4.3368,4.3364,4.3472,4.3484,4.3496,4.3617,4.3529,4.3536,4.354,4.3811,4.3814,4.3818,0,0,0,0,0,0,4.3124,4.3145,4.332,4.324,4.3262,4.3301,4.3349,4.3354,4.3384,4.3426,4.3433,4.3392,4.347,4.3486,4.3574,4.3621,4.3539,4.3545,4.3807,4.3812,4.3816,4.386,0,0,0,0,0,0,4.3118,4.3143,4.3184,4.3241,4.3266,4.3398,4.3352,4.3358,4.3397,4.3393,4.345,4.3457,4.3469,4.3564,4.3581,4.3629,4.3551,4.3803,4.3809,4.3815,4.3855,4.3866,4.3875,0,0,0,0,0,4.3109,4.319,4.3186,4.3207,4.3318,4.3401,4.3415,4.343,4.3401,4.344,4.3467,4.3455,4.3613,4.3573,4.3593,4.3643,4.38,4.3807,4.3814,4.385,4.3864,4.3875,0,0,0,0,0,0,4.3135,4.3198,4.3194,4.3296,4.3344,4.3398,4.3449,4.3444,4.3499,4.3493,4.3507,4.352,4.3609,4.3635,4.3589,4.3743,4.3702,4.3713,4.3723,4.3736,4.3746,4.3737,4.3557,0,0,0,0,0,4.3153,4.3217,4.3268,4.3354,4.3378,4.3409,4.3446,4.3454,4.3502,4.3521,4.3555,4.3601,4.3661,4.37,4.3757,4.3858,4.387,4.3902,4.3913,4.3921,4.393,4.3984,4.3999,4.3841,4.3841,4.3841,0,0,4.319,4.3233,4.3272,4.336,4.3398,4.3462,4.3426,4.3496,4.3543,4.3531,4.3617,4.3643,4.3695,4.379,4.3834,4.3815,4.3976,4.393,4.3936,4.3941,4.3993,4.4008,4.4021,4.3846,4.3845,4.3844,0,0,4.3291,4.333,4.3405,4.3444,4.3502,4.3522,4.354,4.3596,4.3613,4.37,4.3692,4.3747,4.3851,4.3888,4.392,4.4035,4.4025,4.4053,4.4106,4.4159,4.4171,4.4182,4.4222,4.4236,4.4062,4.4062,4.4062,0,4.3329,4.3428,4.3444,4.3515,4.3553,4.3548,4.3623,4.3659,4.3731,4.3757,4.3735,4.3864,4.3898,4.4002,4.403,4.4056,4.4076,4.4046,4.4168,4.4179,4.419,4.4228,4.4243,4.4065,4.4065,4.4064,4.4064,0,4.3471,4.354,4.3593,4.3666,4.371,4.3783,4.3808,4.385,4.3854,4.3875,4.3963,4.4004,4.407,4.4095,4.4098,4.4198,4.4184,4.4165,4.4125,4.4208,4.4243,4.4258,4.4069,4.4068,4.4067,4.4067,0,0,4.3591,4.3672,4.3691,4.3724,4.3787,4.3839,4.3911,4.3977,4.4012,4.4062,4.4121,4.4208,4.4191,4.4228,4.4235,4.4281,4.4368,4.4256,4.4258,4.4275,4.4479,4.4492,4.4509,4.4362,4.4365,4.4367,4.4474,0,4.3697,4.3826,4.3842,4.3956,4.4018,4.4013,4.4075,4.4119,4.4141,4.4196,4.4219,4.4281,4.4254,4.4276,4.4322,4.4348,4.4409,4.434,4.4415,4.4417,4.4401,4.4528,4.4543,4.4642,4.4488,4.4491,4.4493,0,4.3838,4.3894,4.4014,4.4068,4.4095,4.4151,4.4212,4.4265,4.4314,4.4327,4.4368,4.4369,4.4441,4.4398,4.4496,4.4449,4.448,4.4497,4.4501,4.4508,4.4459,4.4537,4.4674,4.4688,4.4515,4.4513,4.4512,0,4.3912,4.4017,4.4102,4.413,4.4196,4.4235,4.4264,4.4311,4.4349,4.4402,4.4426,4.4486,4.4518,4.4564,4.458,4.4548,4.4676,4.4635,4.4687,4.4687,4.4714,4.4712,4.4857,4.4736,4.4736,4.4735,4.4735,0,4.4028,4.4101,4.4137,4.4189,4.427,4.4288,4.4367,4.4393,4.4435,4.4491,4.449,4.4542,4.4561,4.4615,4.4629,4.4707,4.4721,4.4732,4.4735,4.4732,4.473,4.4752,4.4745,4.4739,4.4738,4.4738,4.4737,0,4.4124,4.4151,4.4243,4.4298,4.4314,4.4371,4.4417,4.4466,4.4488,4.4559,4.4576,4.4609,4.4673,4.4695,4.4772,4.478,4.4871,4.4868,4.4855,4.4855,4.4906,4.49,4.5069,4.5091,4.4956,4.4958,4.4959,0,4.4196,4.4253,4.4314,4.4352,4.4383,4.4445,4.4484,4.4503,4.4543,4.4604,4.4645,4.4709,4.4762,4.4864,4.4893,4.4952,4.4949,4.5004,4.4958,4.4953,4.4949,4.4945,4.495,4.5013,4.5014,4.5015,4.5016,0,4.432,4.4331,4.4389,4.4452,4.45,4.4549,4.4597,4.4628,4.4653,4.4699,4.4766,4.4806,4.4885,4.4948,4.5008,4.5035,4.5029,4.5031,4.5046,4.5043,4.5033,4.5038,4.4878,4.5027,4.5026,4.5025,4.5024,4.5024,4.4406,4.4456,4.4507,4.4571,4.461,4.4654,4.4704,4.4732,4.4788,4.4856,4.4863,4.4934,4.498,4.5061,4.5091,4.5145,4.5129,4.5151,4.5157,4.5161,4.5165,4.5025,4.5156,4.5156,4.5155,4.5155,4.5155,0,4.4529,4.4562,4.4621,4.4689,4.474,4.4732,4.4785,4.4826,4.489,4.4935,4.4987,4.5062,4.5123,4.5158,4.5218,4.5255,4.5254,4.527,4.5267,4.5273,4.5176,4.5157,4.527,4.527,4.527,4.527,4.527,4.527,4.4599,4.4683,4.4699,4.4801,4.4833,4.4904,4.4935,4.4975,4.5011,4.5097,4.5148,4.5171,4.5211,4.5275,4.5329,4.5338,4.5359,4.5377,4.5384,4.5292,4.528,4.5269,4.5251,4.5382,4.5382,4.5476,4.5477,4.5478]}]]